Temp
18 18 17 18 20 17 16 16 15 15 16 15 14 14 14 14 14 14 15 14 14 15 16 16 16 16 16 16 16 16 16 15 15 14 13 13 13 13 14 13 13 13 13
18 18 17 19 19 16 16 15 15 15 14 15 15 16 15 15 16 16 14 14 15 15 15 15 15 16 16 16 16 16 16 15 15 15 13 13 13 13 13 13 12 12 12
20 18 18 18 17 16 16 15 15 15 15 14 15 16 16 16 16 15 15 16 16 15 15 15 15 15 15 16 15 15 15 15 15 15 14 13 13 12 12 12 12 12 12
18 17 18 17 16 16 15 15 15 15 15 14 14 14 16 15 15 15 14 14 15 15 15 15 15 15 15 15 15 15 15 15 14 14 13 13 13 12 12 12 12 11 11
19 17 17 17 16 15 15 15 15 15 15 14 14 14 14 15 15 16 15 15 15 15 15 16 16 16 16 15 14 14 15 14 14 14 13 13 13 12 12 12 12 11 10
20 19 18 17 16 16 15 15 14 14 14 14 14 14 14 15 16 16 16 15 15 14 14 15 15 16 16 16 15 15 14 14 13 14 14 13 13 12 12 11 10 10 9
19 20 18 16 17 17 16 15 15 14 14 14 14 14 14 14 15 15 15 14 14 13 14 13 13 14 15 15 15 15 15 15 14 13 13 13 13 12 12 11 11 11 11
17 19 18 19 18 18 18 17 17 14 14 14 15 15 15 15 15 15 15 15 15 15 14 14 14 13 14 13 13 13 15 14 14 13 13 13 13 12 12 12 12 11 11
21 21 20 20 19 19 18 18 16 15 14 14 14 15 15 14 15 15 15 14 13 14 14 14 14 13 15 14 12 12 12 12 13 13 13 13 13 12 12 12 10 10 10
21 20 19 20 20 19 18 18 16 15 15 15 15 14 15 15 15 15 15 14 14 14 14 14 14 14 14 14 13 12 12 11 11 13 12 12 12 12 11 11 10 10 10
21 20 18 19 18 19 17 17 15 15 16 15 15 15 14 16 15 15 15 14 14 14 14 14 13 14 14 14 13 12 11 11 11 11 10 11 11 11 11 11 11 10 10
20 19 18 19 18 18 18 16 16 15 15 15 15 15 15 14 15 16 15 15 13 13 14 14 13 13 13 13 13 13 13 13 11 11 11 11 11 10 10 10 10 10 10
19 19 18 17 17 18 18 17 16 15 16 15 15 15 15 15 14 15 15 14 14 13 13 13 13 13 12 12 12 12 12 12 12 12 12 12 11 11 10 10 10 11 11
16 16 15 15 17 16 15 15 16 17 16 16 16 16 15 15 16 14 14 14 13 13 13 13 13 12 12 12 12 12 12 12 12 12 12 12 12 11 10 10 10 10 10
16 16 15 15 16 15 15 15 15 15 15 16 16 15 15 15 14 14 14 14 14 14 13 13 13 12 12 11 11 12 12 11 11 11 11 12 12 11 11 11 10 10 10
15 16 16 16 16 17 17 17 17 17 16 16 16 16 14 14 14 14 13 13 13 13 13 13 13 12 12 12 11 12 12 11 10 10 10 10 12 12 11 11 11 10 10
16 15 17 17 17 16 16 16 16 14 15 15 14 14 13 13 13 13 13 12 12 12 13 13 12 12 12 12 12 11 10 11 10 10 10 10 11 11 11 12 11 11 10
14 14 14 15 15 15 15 14 14 14 14 14 13 13 13 13 12 12 12 12 12 12 12 12 12 12 12 12 12 11 11 11 10 9 9 8 9 9 10 11 11 11 11
12 12 12 12 13 14 14 13 14 14 14 14 14 13 13 12 12 12 12 12 11 11 11 12 11 11 11 11 11 11 10 10 10 9 8 8 8 8 9 11 12 11 11
12 13 13 13 14 13 14 13 14 14 14 14 14 14 13 13 13 13 12 11 11 11 12 11 11 11 11 10 10 10 10 10 9 9 8 7 7 7 8 9 10 10 10
14 14 14 14 13 13 13 13 14 14 14 15 14 13 13 12 13 14 12 12 12 11 11 12 12 11 11 10 10 10 10 9 9 9 8 8 7 7 7 7 8 8 9
12 13 13 14 14 13 13 14 14 15 15 14 13 13 12 13 13 13 12 11 11 10 11 10 10 10 9 10 10 10 10 9 9 9 9 9 8 7 7 7 7 8 8
13 13 13 13 14 14 14 14 14 13 12 13 13 12 10 11 10 10 9 9 8 8 9 9 9 9 8 8 8 8 8 8 8 8 8 8 8 8 8 8 7 6 7
11 12 13 13 13 13 12 12 12 12 12 12 11 11 10 10 9 8 8 8 8 8 8 8 7 7 7 7 7 7 7 8 8 8 7 7 7 7 7 7 7 6 6
11 12 12 12 11 12 11 11 10 10 9 9 9 9 8 8 7 7 7 7 6 6 6 7 6 7 7 7 7 7 6 6 6 6 7 6 6 6 6 7 7 7 6
10 10 10 10 10 10 9 9 8 8 8 8 8 8 8 7 6 6 6 6 6 6 6 6 6 6 5 5 6 6 6 5 5 5 5 4 4 5 5 5 5 5 5
Height
1512 1513 1514 1513 1513 1516 1518 1519 1520 1521 1522 1525 1527 1529 1529 1528 1527 1527 1527 1528 1529 1529 1528 1527 1526 1525 1525 1525 1526 1528 1529 1531 1533 1535 1537 1538 1540 1541 1542 1544 1545 1545 1546
1512 1512 1513 1514 1515 1519 1521 1521 1522 1522 1523 1522 1525 1525 1526 1526 1526 1525 1526 1526 1526 1527 1527 1527 1526 1524 1524 1524 1524 1526 1526 1529 1532 1533 1536 1537 1539 1540 1542 1543 1544 1546 1547
1508 1510 1511 1514 1516 1520 1523 1521 1522 1523 1524 1525 1524 1525 1526 1526 1525 1525 1525 1525 1525 1525 1525 1525 1525 1525 1524 1524 1525 1525 1527 1528 1530 1532 1534 1537 1538 1539 1541 1542 1544 1545 1546
1507 1511 1512 1513 1516 1518 1519 1520 1522 1524 1525 1525 1526 1526 1525 1526 1527 1527 1526 1526 1525 1524 1525 1524 1524 1524 1524 1525 1525 1526 1527 1528 1529 1531 1533 1535 1537 1539 1541 1542 1543 1546 1547
1505 1509 1509 1512 1514 1516 1517 1518 1520 1524 1525 1526 1527 1529 1527 1525 1527 1526 1525 1526 1526 1525 1525 1525 1524 1524 1524 1524 1525 1526 1527 1528 1529 1529 1531 1533 1535 1537 1539 1541 1542 1544 1547
1499 1503 1507 1509 1511 1513 1514 1516 1519 1522 1524 1524 1524 1527 1529 1530 1526 1526 1525 1524 1525 1526 1525 1525 1524 1524 1523 1523 1523 1524 1526 1527 1528 1527 1528 1529 1532 1535 1537 1539 1543 1544 1546
1497 1498 1502 1506 1508 1509 1511 1514 1517 1522 1524 1523 1522 1523 1526 1528 1527 1527 1526 1525 1524 1525 1525 1525 1526 1524 1524 1523 1523 1523 1523 1524 1525 1527 1527 1528 1530 1533 1535 1537 1540 1542 1546
1497 1496 1496 1500 1503 1506 1508 1510 1515 1521 1524 1523 1521 1522 1523 1524 1525 1526 1525 1525 1524 1523 1523 1523 1524 1524 1523 1524 1524 1523 1523 1523 1524 1525 1526 1527 1530 1532 1534 1536 1538 1541 1542
1491 1490 1491 1494 1499 1502 1505 1506 1514 1519 1521 1522 1520 1519 1520 1522 1523 1524 1524 1525 1524 1523 1522 1522 1522 1523 1522 1523 1524 1524 1525 1525 1524 1525 1526 1526 1528 1530 1532 1533 1536 1539 1541
1486 1489 1491 1491 1493 1499 1502 1505 1510 1516 1518 1520 1518 1518 1516 1516 1519 1521 1523 1522 1521 1521 1521 1520 1521 1521 1522 1522 1522 1524 1525 1526 1526 1525 1525 1526 1527 1528 1530 1532 1535 1537 1539
1484 1486 1487 1490 1494 1496 1501 1502 1505 1510 1515 1514 1514 1515 1515 1513 1513 1517 1520 1521 1522 1521 1520 1520 1519 1518 1519 1519 1520 1521 1522 1523 1524 1526 1526 1526 1526 1527 1528 1531 1533 1534 1535
1482 1483 1486 1488 1492 1492 1495 1500 1501 1506 1509 1508 1508 1510 1511 1510 1510 1511 1514 1516 1518 1518 1518 1518 1517 1517 1517 1517 1516 1516 1517 1518 1521 1524 1525 1526 1527 1528 1528 1529 1530 1531 1533
1480 1481 1482 1485 1489 1490 1491 1494 1498 1500 1504 1503 1503 1505 1507 1506 1506 1507 1508 1510 1511 1512 1513 1512 1511 1512 1513 1514 1514 1514 1514 1516 1518 1519 1519 1520 1520 1522 1524 1523 1524 1525 1526
1478 1478 1481 1484 1484 1487 1490 1493 1492 1494 1497 1498 1499 1498 1502 1502 1502 1504 1502 1504 1505 1507 1507 1507 1507 1507 1508 1509 1509 1510 1511 1513 1516 1516 1516 1516 1516 1517 1518 1520 1522 1522 1521
1475 1476 1478 1480 1482 1484 1488 1489 1488 1490 1491 1490 1492 1494 1494 1496 1498 1498 1499 1499 1498 1500 1502 1500 1501 1501 1502 1503 1504 1503 1505 1506 1506 1506 1508 1510 1510 1512 1512 1514 1516 1517 1516
1468 1470 1473 1474 1476 1479 1483 1484 1484 1484 1484 1485 1486 1488 1490 1490 1490 1491 1492 1493 1493 1493 1492 1493 1494 1495 1495 1496 1496 1497 1496 1497 1499 1501 1505 1504 1506 1507 1508 1511 1510 1511 1511
1462 1464 1468 1469 1472 1475 1477 1481 1480 1479 1478 1480 1483 1486 1486 1487 1487 1486 1486 1486 1487 1488 1484 1485 1486 1489 1490 1489 1489 1488 1490 1491 1492 1493 1494 1497 1499 1502 1504 1504 1506 1507 1507
1461 1462 1463 1465 1468 1470 1471 1476 1480 1478 1479 1481 1482 1483 1484 1483 1484 1485 1484 1481 1481 1478 1477 1478 1478 1480 1481 1481 1482 1482 1483 1481 1482 1484 1487 1490 1493 1493 1496 1496 1498 1499 1501
1462 1463 1464 1466 1470 1467 1470 1473 1477 1477 1479 1482 1483 1480 1481 1481 1480 1482 1482 1480 1479 1477 1475 1476 1476 1477 1478 1477 1475 1476 1474 1474 1476 1477 1478 1481 1483 1487 1488 1491 1490 1491 1493
1466 1466 1467 1467 1469 1470 1469 1469 1473 1476 1478 1480 1479 1480 1479 1479 1479 1479 1479 1478 1477 1475 1474 1473 1471 1473 1474 1474 1472 1470 1469 1469 1470 1470 1471 1471 1473 1475 1477 1478 1481 1482 1485
1471 1469 1469 1471 1472 1472 1471 1471 1473 1475 1476 1476 1477 1477 1478 1478 1479 1479 1476 1476 1476 1476 1475 1472 1470 1471 1473 1471 1470 1468 1467 1465 1464 1464 1464 1465 1467 1468 1468 1471 1473 1473 1475
1470 1470 1470 1470 1469 1470 1471 1472 1473 1474 1474 1473 1475 1475 1476 1477 1478 1477 1477 1475 1474 1474 1475 1473 1470 1471 1471 1469 1467 1466 1464 1462 1460 1460 1460 1460 1460 1459 1461 1463 1464 1463 1464
1469 1468 1468 1467 1468 1469 1469 1470 1470 1471 1472 1474 1476 1476 1475 1475 1475 1474 1475 1473 1472 1471 1471 1469 1468 1470 1470 1469 1467 1466 1465 1463 1461 1458 1456 1455 1453 1452 1453 1453 1456 1456 1456
1464 1465 1466 1466 1465 1466 1467 1467 1467 1470 1472 1473 1474 1475 1475 1475 1474 1474 1473 1472 1471 1470 1470 1470 1469 1468 1466 1465 1464 1463 1457 1457 1456 1455 1454 1453 1451 1449 1447 1446 1445 1445 1444
1462 1463 1462 1461 1461 1462 1464 1466 1466 1469 1470 1472 1474 1474 1474 1474 1473 1473 1472 1471 1470 1470 1471 1470 1468 1464 1463 1461 1459 1457 1454 1452 1449 1448 1447 1447 1446 1443 1442 1439 1436 1435 1434
1457 1457 1457 1458 1459 1458 1462 1464 1466 1468 1470 1471 1473 1474 1474 1473 1474 1473 1473 1473 1473 1472 1471 1470 1466 1463 1463 1461 1458 1455 1453 1451 1448 1446 1444 1441 1439 1437 1436 1432 1429 1427 1425
Wind_Speed
7 6 7 7 3 5 7 7 8 9 8 8 8 5 4 4 4 4 4 3 2 4 6 5 6 6 7 9 9 11 13 12 11 17 16 14 11 9 8 7 6 6 7
8 7 7 7 8 9 8 9 8 8 9 10 7 5 5 3 1 2 3 2 1 2 3 3 4 3 3 4 6 10 10 11 10 16 19 16 13 11 9 10 11 10 9
10 8 9 10 10 9 8 8 8 9 9 7 6 5 4 3 3 3 3 3 2 1 1 2 2 2 1 1 3 5 9 8 8 11 19 19 16 14 13 13 12 12 12
10 11 12 12 11 9 9 8 7 8 8 7 6 5 4 3 3 4 3 2 2 1 0 1 0 2 1 2 4 6 8 9 10 13 18 19 19 17 16 15 14 12 13
13 14 12 13 12 10 9 9 8 8 7 6 6 4 4 4 3 3 3 3 2 2 1 2 2 1 2 4 6 7 8 9 11 15 19 21 21 20 18 16 15 16 12
16 15 15 15 14 11 10 10 8 7 8 9 9 6 5 4 4 3 4 3 2 2 2 1 1 1 0 1 3 7 10 11 11 14 19 22 21 21 19 19 15 16 12
20 17 17 17 15 12 11 10 8 7 10 10 9 8 6 6 4 3 3 4 4 2 0 1 1 1 1 1 3 4 5 7 11 12 16 18 20 21 19 21 19 16 10
19 18 18 18 17 14 13 11 9 11 12 11 9 8 7 7 8 6 5 4 4 4 4 3 3 3 3 2 1 2 3 5 7 11 13 14 16 17 17 20 19 19 14
21 19 20 19 19 18 15 14 11 12 12 12 10 9 8 9 9 9 8 7 8 5 5 5 6 5 5 5 3 3 3 4 7 9 12 14 14 15 16 20 21 17 12
20 21 22 22 22 21 18 16 15 13 12 10 9 9 7 9 11 12 13 10 11 7 9 7 6 8 7 6 5 4 4 5 5 7 10 12 15 16 17 18 16 17 14
21 23 24 23 23 22 20 17 16 14 14 12 11 10 12 11 11 12 15 14 11 10 10 9 8 8 8 8 8 6 7 7 6 5 6 9 11 13 17 18 19 17 16
19 22 25 25 25 24 22 18 17 17 16 14 12 13 13 13 14 15 16 17 16 14 11 10 12 12 11 10 10 11 10 10 7 8 8 9 9 10 12 15 19 18 13
19 23 26 25 23 24 25 23 20 19 17 13 15 14 15 16 14 16 17 19 21 22 16 16 18 17 17 14 14 14 13 12 11 12 12 12 12 13 15 18 18 20 21
17 18 19 20 25 20 21 22 21 19 16 15 15 17 15 13 14 14 15 15 18 23 24 24 23 22 20 19 19 19 18 16 14 14 14 13 13 14 14 14 14 13 13
18 18 18 19 21 18 21 21 18 16 18 16 17 17 16 16 19 20 19 18 19 21 22 25 26 25 24 22 21 24 23 22 23 23 19 17 17 17 18 17 17 16 16
20 21 22 23 20 20 20 26 24 24 22 20 20 20 21 20 20 18 19 20 18 20 22 24 28 29 29 27 25 28 27 27 26 23 21 18 20 21 20 20 20 20 20
20 23 21 17 15 13 9 11 12 11 13 14 12 14 15 17 19 20 19 19 19 21 23 25 25 26 27 28 29 31 25 32 32 29 27 22 22 22 24 23 23 24 23
6 13 14 14 12 10 6 4 4 4 4 7 9 11 10 8 9 10 10 11 13 14 16 20 24 25 25 26 24 28 31 33 30 31 29 24 22 21 23 25 26 26 25
8 9 8 6 8 10 6 8 6 5 5 6 7 9 7 6 6 8 10 9 8 8 13 14 15 19 21 21 19 16 19 22 24 30 30 28 32 28 23 27 24 26 25
7 8 8 7 5 4 5 6 3 4 6 6 5 5 6 6 5 6 8 6 7 10 12 11 10 11 13 11 11 11 12 16 17 21 26 30 29 27 29 27 24 23 26
2 4 5 6 5 5 5 4 5 6 6 4 5 5 9 9 8 8 7 6 7 8 11 8 6 7 9 10 10 10 11 12 13 15 18 21 29 36 40 35 35 28 31
7 5 5 4 4 4 3 3 5 7 5 3 1 7 9 4 6 6 6 5 5 6 6 7 8 10 13 11 10 9 10 11 11 12 13 16 21 28 34 39 38 34 34
8 8 7 6 6 9 7 7 7 5 3 2 1 3 4 4 4 5 6 6 5 5 4 4 3 4 5 4 7 10 10 11 12 17 18 17 16 19 21 27 39 39 35
11 11 11 11 10 10 9 6 4 6 5 4 3 3 4 5 4 4 4 4 5 6 6 5 4 5 6 5 4 4 8 11 13 13 13 15 19 20 23 25 28 34 42
12 12 11 11 9 8 5 5 7 7 8 8 6 6 5 6 7 7 8 7 7 6 6 6 6 7 8 9 8 8 10 11 13 14 15 14 15 18 21 23 24 27 32
7 9 5 4 3 8 11 12 10 10 9 9 8 8 7 8 8 8 9 9 7 7 6 5 6 9 9 10 12 12 13 14 15 15 15 11 13 13 13 15 17 21 28
Wind_Direction
188 172 161 148 127 149 147 142 154 161 162 157 170 190 196 200 216 227 227 251 279 283 298 298 294 271 245 239 229 214 203 210 212 196 190 179 174 168 169 173 171 177 178
181 159 159 148 133 146 158 153 157 154 163 169 168 162 155 168 186 197 180 173 192 248 295 321 320 310 265 228 211 197 205 214 208 199 187 183 179 179 178 172 162 162 164
159 165 163 168 152 162 168 160 159 156 157 158 150 138 130 124 112 118 141 158 165 193 287 316 327 332 295 193 175 177 198 192 199 206 194 190 185 180 179 173 169 167 169
166 172 174 170 169 164 166 159 164 162 166 158 156 158 144 114 112 121 114 108 118 131 301 328 264 222 231 169 183 200 201 199 203 199 200 196 194 187 188 184 175 176 168
178 181 177 175 174 171 168 168 167 173 176 172 165 179 175 144 150 152 119 85 61 55 36 343 331 311 241 209 186 209 212 205 200 203 205 202 199 196 194 191 186 173 167
186 187 188 183 179 179 174 171 172 180 193 181 168 180 211 198 216 183 155 136 108 72 64 38 19 19 253 214 216 222 215 214 218 220 211 209 210 207 200 192 183 179 173
193 190 190 186 184 177 175 172 172 205 210 194 182 174 192 216 220 216 193 175 168 200 273 5 52 297 328 244 210 215 219 228 224 226 221 222 216 215 210 198 197 183 185
195 193 188 191 182 182 176 175 185 209 217 205 196 201 216 220 219 216 218 221 220 222 227 252 231 255 235 216 196 231 235 229 220 213 220 224 227 223 217 215 207 192 192
210 211 198 193 189 186 183 181 189 205 214 215 209 219 242 237 237 232 230 242 237 241 253 259 254 245 253 241 198 212 224 252 240 234 221 220 224 223 219 212 207 197 204
220 219 207 199 193 194 189 189 189 206 211 221 218 227 233 233 244 242 240 248 248 240 258 262 256 249 255 243 223 228 238 244 231 241 235 229 223 221 216 214 211 204 212
228 218 206 202 201 195 196 193 192 204 215 215 222 231 238 243 243 246 246 243 247 254 237 252 240 253 253 252 253 240 222 235 245 238 224 228 222 220 215 216 217 217 224
225 213 209 207 205 203 205 206 205 209 220 221 228 237 243 244 247 252 251 253 241 238 247 247 237 255 253 251 244 243 237 232 215 218 223 225 223 228 221 225 226 229 231
227 217 212 210 211 212 215 216 214 218 219 231 232 239 245 248 248 260 253 256 250 250 244 244 251 253 256 254 250 247 241 232 221 223 225 224 222 220 215 225 231 233 237
235 223 216 216 213 215 218 218 221 227 229 229 238 243 253 250 256 258 266 270 263 256 255 258 257 254 253 253 252 246 241 234 230 233 229 228 224 217 218 220 225 235 229
240 225 219 211 218 221 226 226 223 231 233 243 253 244 247 256 264 267 262 264 262 268 260 256 260 258 255 251 243 250 242 238 235 225 222 229 226 226 227 226 228 229 230
226 220 210 207 208 219 237 244 245 251 257 260 255 251 259 260 264 272 277 277 264 257 257 260 264 262 258 252 247 253 252 244 237 232 236 232 234 236 237 238 236 235 233
219 221 215 209 207 214 229 268 269 249 246 242 251 268 273 268 279 282 280 277 274 264 258 266 269 270 270 262 261 254 245 253 249 248 243 232 237 239 243 241 241 243 240
185 176 172 176 181 192 219 240 238 288 316 293 296 264 271 277 281 284 283 287 285 278 278 269 267 268 274 265 270 262 263 264 257 251 240 237 241 242 248 243 240 238 241
99 108 125 148 178 231 203 189 192 210 212 231 245 306 315 285 292 291 292 299 291 296 296 289 287 281 277 279 280 279 273 269 266 256 253 246 241 236 237 247 241 241 243
91 85 88 78 87 123 141 141 172 207 222 233 237 235 270 314 309 297 307 308 319 315 308 299 294 291 290 285 291 292 292 277 276 272 258 254 246 220 243 236 241 246 250
98 109 130 146 161 178 182 184 199 220 226 237 249 242 258 276 275 287 300 311 313 317 313 319 322 308 298 294 287 291 287 288 287 284 277 270 252 241 231 232 235 230 252
235 242 236 226 220 225 220 210 235 237 240 249 269 300 291 339 293 291 299 311 310 300 291 297 317 323 320 322 317 314 313 312 307 300 293 287 278 265 248 240 240 232 250
282 285 284 272 253 248 235 229 234 224 201 209 278 305 358 7 356 356 353 341 334 329 292 329 329 303 295 301 317 322 322 320 311 314 312 308 287 274 261 253 247 247 255
270 274 268 270 256 247 242 226 189 167 148 140 113 95 74 72 51 31 40 42 41 43 43 40 33 23 1 4 356 349 279 279 282 276 261 283 279 276 281 279 273 259 253
251 250 255 253 247 215 196 154 139 133 119 95 88 79 64 56 52 42 31 22 23 22 20 26 26 27 29 23 10 350 342 330 320 308 299 293 284 275 275 269 267 270 271
235 235 247 250 157 144 136 134 129 131 110 102 84 79 75 64 58 51 47 39 40 44 47 33 21 27 26 6 359 354 350 349 353 353 353 338 316 312 319 312 300 288 283